Torna al catalogo

HULIANWANG DIGUI-179

AttivoScienzaLEO
NORAD 100204·PAYLOAD·🇨🇳 China

Lanciato Aug 4, 2026 da Wenchang Space Launch Site

Loading…

Prossimi Passaggi (prossime 24 ore)

TLE

AggiornatoSource: Space-Track

Epoca: Sep 14, 2026, 22:08 UTC

1 A0204U 26176B   26257.92274932 -.00000089  00000-0  75906-4 0  9997
2 A0204  49.9850 244.1609 0000263 355.0564   5.0306 13.29327799  5559

Traccia HULIANWANG DIGUI-179 in tempo reale con AllMySat

Download on the App Store